Location: Comstock Ranch
(38.0499°N, 120.2627°W)
Time: 21:14:21
(UTC+00:00)

IRS-1D - Pass Details

Date: 08 September 2024
Orbit: 738 x 812 km, 98.8° (Epoch: 12 October)

Event Time Altitude Azimuth Distance (km) Brightness Sun altitude
Rises 12:02:59 0° 12° (NNE) 3,326 7.3 -18.7°
Reaches altitude 10° 12:05:19 10° 11° (N) 2,397 6.5 -18.3°
Maximum altitude 12:10:38 81° 286° (WNW) 826 3.5 -17.3°
Enters shadow 12:15:45 11° 199° (SSW) 2,319 5.6 -16.4°
